Погода в Давиде

Панама     8°25′00″N   82°25′24″W
темп.,
°C
ветер,
м/с
пор.,
м/с
влажн.,
%
обл.,
%
осадки,
мм/ч
давл.,
гПа
погр.,
м
19 июня, сб
сб1901:00+23ссз119086 0.0 101111
04:00+22ссз1188100 0.0 101112
07:00+23с118434 0.0 101229
10:00+27ю217178 0.0 1013744
13:00+30ююз326448 0.1 10111201
16:00+26ююз3485100 8.2 1010155
19:00+23зсз1197100 17.6 101299
22:00+23з119697 0.1 101438
20 июня, вс
вс2001:00+23зсз119319 0.1 101226
04:00+23с019333 0.0 101111
07:00+24с118958 0.0 101353
10:00+27юз1174100 0.0 1013660
13:00+29ююз3271100 2.3 1011769
16:00+25ююз2387100 9.1 1010128
19:00+23ююв1197100 16.2 101286
22:00+23сз0196100 2.3 101445
21 июня, пн
пн2101:00+23з129689 3.6 101374
04:00+22з119681 0.3 101138
07:00+23зсз1192100 0.3 101271
10:00+27зюз127898 0.0 1013667
13:00+29ююз3271100 1.9 1011943
16:00+23ю3698100 13.9 1010360
19:00+22сз2498100 50.0 1013244
22:00+22зсз2491100 1.3 1014155
22 июня, вт
вт2201:00+22зюз1290100 1.3 101270
04:00+22всв2293100 0.0 101245
07:00+22св1187100 0.0 101340
10:00+26ююв1172100 0.0 1014507
13:00+28ю2264100 0.0 10131108
16:00+28ююз3273100 0.2 1011700
19:00+24юз2290100 0.9 101251
22:00+24з1291100 0.1 101479
23 июня, ср
ср2301:00+24зсз139054 0.2 1013110
04:00+24ссз1189100 0.1 101220
07:00+24с1189100 0.1 101320
10:00+27ююз217683 0.0 1014634
13:00+28ююз3271100 4.2 1013857
16:00+23юв0096100 13.1 101184
19:00+23зсз2394100 17.4 1013104
22:00+23юв1192100 0.5 101329